Clinton-Sherman, OK

1:53 AM CDT on August 18, 2017 (GMT -0500)
Clinton-Sherman

Weather History for KCSM - November, 2014

Change the Weather History Date:

Monday, November 17, 2014

  Actual Average Record
Temperature  
Mean Temperature 26 °F -  
Max Temperature 36 °F 57 °F 78 °F (1999)
Min Temperature 15 °F 38 °F 15 °F (2014)
Degree Days  
Heating Degree Days 40    
Moisture  
Dew Point 15 °F    
Average Humidity 65    
Maximum Humidity 75    
Minimum Humidity 46    
Precipitation  
Precipitation 0.00 in - - ()
Sea Level Pressure  
Sea Level Pressure 30.41 in    
Wind  
Wind Speed 13 mph (West)    
Max Wind Speed 18 mph    
Max Gust Speed -    
Visibility 10 miles    
Events      
Averages and records for this station are not official NWS values.
T = Trace of Precipitation, MM = Missing Value Source: NWS Daily Summary

Daily Weather History Graph

Daily Weather History Graph

Search for Another Location

Airport or City:

Trip Planner

Search our weather history database for the weather conditions in past years. The results will help you decide how hot, cold, wet, or windy it might be!

Date:

Astronomy

Nov. 17, 2014 Rise Set
Actual Time 7:13 AM CST 5:29 PM CST
Civil Twilight 6:46 AM CST 5:56 PM CST
Nautical Twilight 6:15 AM CST 6:27 PM CST
Astronomical Twilight 5:45 AM CST 6:57 PM CST
Moon 2:27 AM CST (11/17) 2:44 PM CST (11/17)
Length of Visible Light 11h 09m
Length of Day
10h 15m
Waning Crescent, 22% of the Moon is Illuminated
Nov 17
Waning Crescent
Nov 22
New
Nov 29
First Quarter
Dec 6
Full
Dec 14
Last Quarter

Hourly Weather History & Observations

Time (CST) Temp. Windchill Dew Point Humidity Pressure Visibility Wind Dir Wind Speed Gust Speed Precip Events Conditions
12:53 AM 24.1 °F 10.1 °F 12.9 °F 62% 30.32 in 10.0 mi NW 18.4 mph - N/A   Clear
1:53 AM 24.1 °F 12.0 °F 12.0 °F 60% 30.33 in 10.0 mi NNW 13.8 mph - N/A   Clear
2:53 AM 21.9 °F 9.2 °F 12.0 °F 66% 30.35 in 10.0 mi NNW 13.8 mph - N/A   Clear
3:53 AM 18.0 °F 5.4 °F 10.0 °F 71% 30.38 in 10.0 mi NW 11.5 mph - N/A   Clear
4:53 AM 15.1 °F 2.5 °F 8.1 °F 74% 30.40 in 10.0 mi NW 10.4 mph - N/A   Clear
5:53 AM 16.0 °F 3.6 °F 9.0 °F 74% 30.42 in 10.0 mi NW 10.4 mph - N/A   Clear
6:53 AM 16.0 °F 2.9 °F 9.0 °F 74% 30.44 in 10.0 mi NW 11.5 mph - N/A   Clear
7:53 AM 17.1 °F 4.3 °F 9.0 °F 71% 30.47 in 10.0 mi NW 11.5 mph - N/A   Clear
8:53 AM 21.0 °F 7.6 °F 10.9 °F 65% 30.48 in 10.0 mi NNW 15.0 mph - N/A   Clear
9:53 AM 24.1 °F 12.0 °F 12.0 °F 60% 30.50 in 10.0 mi NNW 13.8 mph - N/A   Clear
10:53 AM 27.0 °F 16.7 °F 15.1 °F 61% 30.49 in 10.0 mi NW 11.5 mph - N/A   Clear
11:53 AM 30.0 °F 19.5 °F 14.0 °F 51% 30.47 in 10.0 mi NNW 13.8 mph - N/A   Clear
12:53 PM 33.1 °F 25.5 °F 15.1 °F 48% 30.43 in 10.0 mi North 9.2 mph - N/A   Clear
1:53 PM 34.0 °F 28.0 °F 18.0 °F 52% 30.41 in 10.0 mi Variable 6.9 mph - N/A   Clear
2:53 PM 36.0 °F - 17.1 °F 46% 30.40 in 10.0 mi Calm Calm - N/A   Clear
3:53 PM 36.0 °F 28.5 °F 21.0 °F 55% 30.38 in 10.0 mi SSW 10.4 mph - N/A   Clear
4:53 PM 34.0 °F 27.2 °F 21.0 °F 59% 30.39 in 10.0 mi South 8.1 mph - N/A   Clear
5:53 PM 28.9 °F 20.4 °F 19.9 °F 69% 30.40 in 10.0 mi South 9.2 mph - N/A   Clear
6:53 PM 28.9 °F 19.8 °F 19.9 °F 69% 30.40 in 10.0 mi South 10.4 mph - N/A   Clear
7:53 PM 28.0 °F 18.6 °F 19.0 °F 69% 30.41 in 10.0 mi South 10.4 mph - N/A   Clear
8:53 PM 28.0 °F 18.1 °F 19.9 °F 72% 30.40 in 10.0 mi SSW 11.5 mph - N/A   Clear
9:53 PM 28.0 °F 16.5 °F 21.0 °F 75% 30.39 in 10.0 mi SSW 15.0 mph - N/A   Clear
10:53 PM 27.0 °F 16.1 °F 19.9 °F 75% 30.39 in 10.0 mi SSW 12.7 mph - N/A   Clear
11:53 PM 28.0 °F 17.5 °F 19.9 °F 72% 30.38 in 10.0 mi SSW 12.7 mph - N/A   Clear